{"data":{"norad_id":60517,"intl_designator":"2024-149BB","name":"FLOCK 4BE-14","alt_names":[],"object_type":"PAYLOAD","status":"ACTIVE","operator":null,"country":"US","launch_date":"2024-08-16","launch_site_code":"AFWTR","launch_vehicle":null,"mission":null,"orbit_class":"UNKNOWN","rcs_meters":null,"size_class":null,"mass_kg":null,"dimensions":null,"purposes":["earth_obs"],"wikipedia_slug":null,"has_3d_model":false,"image_url":null,"decayed_at":null,"tle_current":{"epoch":"2026-09-19T00:58:37.054560Z","epoch_age_seconds":140610,"freshness":"FRESH","line1":"1 60517U 24149BB  26262.04070665  .00028021  00000+0  60934-3 0  9992","line2":"2 60517  97.3635 346.7891 0003156 318.1142  41.9864 15.44286383116797","mean_motion":15.44286383,"eccentricity":0.0003156,"inclination_deg":97.3635,"raan_deg":346.7891,"arg_perigee_deg":318.1142,"mean_anomaly_deg":41.9864,"bstar":0.00060934,"rev_number":11679,"period_min":93.246953146255,"perigee_km":431.32595690233,"apogee_km":435.62544683975,"semimajor_km":6811.612701871,"source":"CELESTRAK","updated_at":"2026-09-20T09:00:34.715784Z"}}}